Location: Pompeys Pillar
(45.9913°N, 107.9528°W)
Time: 04:20:04
(UTC+00:00)

Tiros 1 - Pass Details

Date: 06 June 2022
Orbit: 629 x 663 km, 48.4° (Epoch: 30 June)

Event Time Altitude Azimuth Distance (km) Brightness Sun altitude
Rises 03:30:23 0° 221° (SW) 2,909 10.5 -5.2°
Reaches altitude 10° 03:32:49 10° 213° (SSW) 2,001 9.6 -5.5°
Maximum altitude 03:37:03 37° 146° (SE) 980 7.6 -6.1°
Drops below altitude 10° 03:41:17 10° 79° (E) 2,007 9.3 -6.6°
Sets 03:43:44 0° 71° (ENE) 2,918 10.2 -6.9°
